La Paz, Mexico

9:54 PM MST on February 12, 2016 (GMT -0700)
Gen Manuel Marquez De Leon

Weather History for MMLP - November, 2013

Change the Weather History Date:

Friday, November 1, 2013

  Actual Average Record
Temperature  
Mean Temperature 80 °F -  
Max Temperature 86 °F 83 °F 96 °F (2008)
Min Temperature 73 °F 60 °F 57 °F (2007)
Cooling Degree Days 14    
Growing Degree Days 30 (Base 50)    
Moisture  
Dew Point 66 °F    
Average Humidity 62    
Maximum Humidity 75    
Minimum Humidity 42    
Precipitation  
Precipitation 0.00 in - - ()
Sea Level Pressure  
Sea Level Pressure 29.94 in    
Wind  
Wind Speed 8 mph ()    
Max Wind Speed 18 mph    
Max Gust Speed -    
Visibility 9.9 miles    
Events      
Averages and records for this station are not official NWS values.
T = Trace of Precipitation, MM = Missing Value Source: Averaged Metar Reports

Daily Weather History Graph

Daily Weather History Graph

Search for Another Location

Airport or City:

Trip Planner

Search our weather history database for the weather conditions in past years. The results will help you decide how hot, cold, wet, or windy it might be!

Date:

Astronomy

Nov. 01, 2013 Rise Set
Actual Time 6:27 AM MST 5:41 PM MST
Civil Twilight 6:04 AM MST 6:05 PM MST
Nautical Twilight 5:37 AM MST 6:32 PM MST
Astronomical Twilight 5:10 AM MST 6:58 PM MST
Moon 4:35 AM MST (11/1) 4:28 PM MST (11/1)
Length of Visible Light 12h 00m
Length of Day
11h 13m
Waning Crescent, 4% of the Moon is Illuminated
Nov 1
Waning Crescent
Nov 3
New
Nov 9
First Quarter
Nov 17
Full
Nov 25
Last Quarter

Hourly Weather History & Observations

Time (MST) Temp. Heat Index Dew Point Humidity Pressure Visibility Wind Dir Wind Speed Gust Speed Precip Events Conditions
1:50 AM 75 °F - 68 °F 74% 29.93 in 2 mi East 2.2 mph - -   Scattered Clouds
4:50 AM 76 °F - 69 °F 73% 29.92 in 2 mi North 4.5 mph - -   Scattered Clouds
5:57 AM 75.2 °F - 66.2 °F 73% 29.94 in 10.0 mi North 9.2 mph - N/A   Scattered Clouds
7:51 AM 78.8 °F - 66.2 °F 65% 30.02 in 10.0 mi NNE 10.4 mph - N/A   Scattered Clouds
8:00 AM 78 °F - 69 °F 67% 29.96 in 12 mi North 6.7 mph - -  
8:40 AM 78.8 °F - 66.2 °F 65% 29.98 in 10.0 mi NNE 13.8 mph - N/A   Scattered Clouds
9:41 AM 78.8 °F - 66.2 °F 65% 29.99 in 10.0 mi North 16.1 mph - N/A   Scattered Clouds
10:46 AM 80.6 °F 82.3 °F 64.4 °F 58% 30.04 in 10.0 mi North 16.1 mph - N/A   Scattered Clouds
10:50 AM 82 °F - 67 °F 51% 29.97 in 19 mi North 11.2 mph - -   Partly Cloudy
11:46 AM 82.4 °F 83.9 °F 64.4 °F 54% 29.96 in 10.0 mi North 13.8 mph - N/A   Scattered Clouds
12:40 PM 82.4 °F 83.9 °F 64.4 °F 54% 29.93 in 10.0 mi North 12.7 mph - N/A   Scattered Clouds
1:43 PM 82.4 °F 83.4 °F 62.6 °F 51% 29.95 in 10.0 mi North 18.4 mph - N/A   Scattered Clouds
1:50 PM 86 °F - 66 °F 42% 29.90 in 19 mi NNE 8.9 mph - -   Scattered Clouds
2:40 PM 82.4 °F 82.9 °F 60.8 °F 48% 29.88 in 10.0 mi North 18.4 mph - N/A   Scattered Clouds
3:40 PM 82.4 °F 83.4 °F 62.6 °F 51% 29.87 in 10.0 mi North 16.1 mph - N/A   Scattered Clouds
4:45 PM 81 °F - 68 °F 56% 29.86 in 19 mi NE 6.7 mph - -   Clear
4:53 PM 80.6 °F 81.8 °F 62.6 °F 54% 30.00 in 10.0 mi NNE 9.2 mph - N/A   Mostly Cloudy
5:47 PM 78.8 °F - 64.4 °F 61% 29.88 in 10.0 mi NE 9.2 mph - N/A   Mostly Cloudy
6:47 PM 77.0 °F - 66.2 °F 69% 29.90 in 10.0 mi NE 9.2 mph - N/A   Scattered Clouds
7:45 PM 78 °F - 68 °F 63% 29.88 in 2 mi NE 4.5 mph - -   Clear
7:45 PM 77.0 °F - 64.4 °F 65% 30.02 in 10.0 mi NE 9.2 mph - N/A   Scattered Clouds
8:50 PM 75.2 °F - 64.4 °F 69% 29.92 in 10.0 mi ENE 9.2 mph - N/A   Scattered Clouds
9:46 PM 75.2 °F - 64.4 °F 69% 29.92 in 10.0 mi ENE 6.9 mph - N/A   Scattered Clouds
10:50 PM 76 °F - 69 °F 75% 29.89 in 2 mi NE 2.2 mph - -   Clear
10:56 PM 75.2 °F - 64.4 °F 69% 30.02 in 10.0 mi NNE 6.9 mph - N/A   Scattered Clouds